Weather History for North Bend, OR

Change the Weather History Date:

Sunday, September 15, 2013

  Actual Average Record
Temperature  
Mean Temperature 61 °F 58 °F  
Max Temperature 64 °F 65 °F 78 °F (1991)
Min Temperature 57 °F 50 °F 39 °F (1927)
Degree Days  
Heating Degree Days 4 7  
Month to date heating degree days 31 100  
Since 1 July heating degree days 198 479  
Cooling Degree Days 0 0  
Month to date cooling degree days 1 0  
Year to date cooling degree days 13 1  
Growing Degree Days 10 (Base 50)    
Moisture  
Dew Point 58 °F    
Average Humidity 93    
Maximum Humidity 100    
Minimum Humidity 84    
Precipitation  
Precipitation 0.01 in 0.05 in 1.69 in (1997)
Month to date precipitation 0.47 0.61  
Year to date precipitation 18.40 37.85  
Sea Level Pressure  
Sea Level Pressure 29.86 in    
Wind  
Wind Speed 5 mph (SSW)    
Max Wind Speed 15 mph    
Max Gust Speed 21 mph    
Visibility 9 miles    
Events      
T = Trace of Precipitation, MM = Missing Value Source: NWS Daily Summary

Daily Weather History Graph

Daily Weather History Graph

Search for Another Location

Airport:

Trip Planner

Search our weather history database for the weather conditions in past years. The results will help you decide how hot, cold, wet, or windy it might be!

Date:

Astronomy

Sep. 15, 2013 Rise Set
Actual Time 6:56 AM PDT 7:26 PM PDT
Civil Twilight 6:28 AM PDT 7:55 PM PDT
Nautical Twilight 5:54 AM PDT 8:28 PM PDT
Astronomical Twilight 5:19 AM PDT 9:03 PM PDT
Moon 5:03 PM PDT (9/15) 2:35 AM PDT (9/15)
Length of Visible Light 13h 26m
Length of Day
12h 29m
Waxing Gibbous, 83% of the Moon is Illuminated
Sep 15
Waxing Gibbous
Sep 19
Full
Sep 26
Last Quarter
Oct 4
New
Oct 11
First Quarter

Hourly Weather History & Observations

Time (PDT) Temp. Dew Point Humidity Pressure Visibility Wind Dir Wind Speed Gust Speed Precip Events Conditions
12:15 AM 57.2 °F 57.2 °F 100% 29.82 in 10.0 mi Calm Calm - N/A   Overcast
12:35 AM 57.2 °F 57.2 °F 100% 29.81 in 8.0 mi Calm Calm - N/A   Overcast
12:55 AM 57.2 °F 57.2 °F 100% 29.81 in 7.0 mi SSE 3.5 mph - N/A   Overcast
1:15 AM 57.2 °F 57.2 °F 100% 29.81 in 7.0 mi SSE 3.5 mph - N/A   Overcast
1:35 AM 57.2 °F 57.2 °F 100% 29.81 in 9.0 mi SSE 3.5 mph - N/A   Overcast
1:55 AM 57.2 °F 57.2 °F 100% 29.81 in 10.0 mi South 3.5 mph - N/A   Overcast
2:15 AM 57.2 °F 57.2 °F 100% 29.81 in 10.0 mi Calm Calm - N/A   Overcast
2:35 AM 57.2 °F 57.2 °F 100% 29.81 in 10.0 mi Calm Calm - N/A   Overcast
2:55 AM 57.2 °F 57.2 °F 100% 29.81 in 8.0 mi Calm Calm - N/A   Overcast
3:15 AM 57.2 °F 57.2 °F 100% 29.80 in 5.0 mi Calm Calm - N/A   Overcast
3:35 AM 57.2 °F 57.2 °F 100% 29.81 in 9.0 mi Calm Calm - N/A   Overcast
3:55 AM 57.2 °F 57.2 °F 100% 29.81 in 10.0 mi Calm Calm - N/A   Overcast
4:15 AM 57.2 °F 57.2 °F 100% 29.81 in 10.0 mi Calm Calm - N/A   Overcast
4:35 AM 57.2 °F 57.2 °F 100% 29.80 in 5.0 mi SSE 3.5 mph - N/A   Overcast
4:55 AM 57.2 °F 57.2 °F 100% 29.80 in 5.0 mi Calm Calm - N/A   Overcast
5:15 AM 57.2 °F 57.2 °F 100% 29.80 in 10.0 mi Calm Calm - N/A   Overcast
5:35 AM 57.2 °F 57.2 °F 100% 29.80 in 7.0 mi Calm Calm - N/A   Overcast
5:55 AM 57.2 °F 57.2 °F 100% 29.81 in 5.0 mi Calm Calm - N/A   Overcast
6:15 AM 57.2 °F 57.2 °F 100% 29.81 in 4.0 mi South 3.5 mph - N/A   Overcast
6:35 AM 57.2 °F 57.2 °F 100% 29.81 in 10.0 mi Calm Calm - N/A   Overcast
6:55 AM 57.2 °F 57.2 °F 100% 29.81 in 8.0 mi Calm Calm - N/A   Overcast
7:15 AM 59.0 °F 59.0 °F 100% 29.81 in 5.0 mi Calm Calm - N/A   Overcast
7:35 AM 59.0 °F 59.0 °F 100% 29.81 in 10.0 mi Calm Calm - N/A   Overcast
7:55 AM 59.0 °F 59.0 °F 100% 29.81 in 10.0 mi Calm Calm - N/A   Overcast
8:15 AM 60.8 °F 60.8 °F 100% 29.81 in 10.0 mi SE 5.8 mph - N/A   Overcast
8:35 AM 60.8 °F 60.8 °F 100% 29.82 in 10.0 mi SSE 5.8 mph - 0.01 in   Overcast
8:55 AM 60.8 °F 60.8 °F 100% 29.82 in 10.0 mi SSE 5.8 mph - 0.01 in   Overcast
9:15 AM 60.8 °F 60.8 °F 100% 29.82 in 10.0 mi South 5.8 mph - N/A   Overcast
9:35 AM 60.8 °F 60.8 °F 100% 29.83 in 10.0 mi WSW 6.9 mph - N/A   Overcast
9:55 AM 57.2 °F 57.2 °F 100% 29.83 in 10.0 mi West 6.9 mph - N/A   Overcast
10:15 AM 59.0 °F 59.0 °F 100% 29.84 in 10.0 mi West 5.8 mph - N/A   Overcast
10:35 AM 59.0 °F 59.0 °F 100% 29.84 in 10.0 mi West 5.8 mph - N/A   Overcast
10:55 AM 60.8 °F 59.0 °F 94% 29.85 in 10.0 mi Calm Calm - N/A   Overcast
11:15 AM 59.0 °F 59.0 °F 100% 29.85 in 10.0 mi WNW 3.5 mph - N/A   Overcast
11:35 AM 60.8 °F 60.8 °F 100% 29.85 in 10.0 mi WNW 5.8 mph - N/A   Overcast
11:55 AM 60.8 °F 60.8 °F 100% 29.85 in 10.0 mi West 5.8 mph - N/A   Overcast
12:15 PM 60.8 °F 59.0 °F 94% 29.86 in 10.0 mi West 11.5 mph - N/A   Overcast
12:35 PM 60.8 °F 59.0 °F 94% 29.86 in 10.0 mi West 6.9 mph - N/A   Overcast
12:55 PM 62.6 °F 59.0 °F 88% 29.87 in 10.0 mi SSW 9.2 mph 17.3 mph N/A   Overcast
1:15 PM 62.6 °F 59.0 °F 88% 29.87 in 10.0 mi SSW 11.5 mph 17.3 mph N/A   Overcast
1:35 PM 62.6 °F 59.0 °F 88% 29.87 in 10.0 mi SSW 11.5 mph 16.1 mph N/A   Overcast
1:55 PM 62.6 °F 57.2 °F 82% 29.88 in 10.0 mi SSW 13.8 mph - N/A   Overcast
2:15 PM 62.6 °F 57.2 °F 82% 29.88 in 10.0 mi SW 10.4 mph 18.4 mph N/A   Overcast
2:35 PM 62.6 °F 57.2 °F 82% 29.88 in 10.0 mi SW 8.1 mph 17.3 mph N/A   Overcast
2:55 PM 62.6 °F 57.2 °F 82% 29.88 in 10.0 mi WSW 10.4 mph 18.4 mph N/A   Overcast
3:15 PM 62.6 °F 57.2 °F 82% 29.89 in 10.0 mi WSW 13.8 mph 18.4 mph N/A   Overcast
3:35 PM 62.6 °F 57.2 °F 82% 29.89 in 10.0 mi WSW 12.7 mph 18.4 mph N/A   Overcast
3:55 PM 62.6 °F 57.2 °F 82% 29.89 in 10.0 mi WSW 11.5 mph - N/A   Overcast
4:15 PM 62.6 °F 57.2 °F 82% 29.89 in 10.0 mi WSW 13.8 mph - N/A   Overcast
4:35 PM 62.6 °F 57.2 °F 82% 29.89 in 10.0 mi WSW 16.1 mph - N/A   Overcast
4:55 PM 62.6 °F 57.2 °F 82% 29.90 in 10.0 mi WSW 15.0 mph 20.7 mph N/A   Overcast
5:15 PM 62.6 °F 57.2 °F 82% 29.90 in 10.0 mi WSW 13.8 mph - N/A   Overcast
5:35 PM 62.6 °F 57.2 °F 82% 29.90 in 10.0 mi WSW 12.7 mph - N/A   Overcast
5:55 PM 62.6 °F 57.2 °F 82% 29.90 in 10.0 mi WSW 9.2 mph - N/A   Overcast
6:15 PM 60.8 °F 57.2 °F 88% 29.90 in 10.0 mi WSW 4.6 mph - N/A   Overcast
6:35 PM 62.6 °F 57.2 °F 82% 29.91 in 10.0 mi SW 3.5 mph - N/A   Overcast
6:55 PM 62.6 °F 57.2 °F 82% 29.91 in 10.0 mi Calm Calm - N/A   Overcast
7:15 PM 60.8 °F 57.2 °F 88% 29.92 in 10.0 mi SSW 5.8 mph - N/A   Overcast
7:35 PM 60.8 °F 57.2 °F 88% 29.92 in 10.0 mi SSE 4.6 mph - N/A   Overcast
7:55 PM 60.8 °F 57.2 °F 88% 29.92 in 10.0 mi SSE 3.5 mph - N/A   Overcast
8:15 PM 60.8 °F 57.2 °F 88% 29.92 in 10.0 mi SSE 3.5 mph - N/A   Overcast
8:35 PM 60.8 °F 57.2 °F 88% 29.93 in 10.0 mi SSE 3.5 mph - N/A   Overcast
8:55 PM 60.8 °F 57.2 °F 88% 29.94 in 10.0 mi SSE 4.6 mph - N/A   Overcast
9:15 PM 60.8 °F 57.2 °F 88% 29.94 in 10.0 mi SSE 3.5 mph - N/A   Overcast
9:35 PM 60.8 °F 57.2 °F 88% 29.94 in 10.0 mi SSE 3.5 mph - N/A   Overcast
9:55 PM 60.8 °F 57.2 °F 88% 29.94 in 10.0 mi SSE 4.6 mph - N/A   Overcast
10:15 PM 60.8 °F 57.2 °F 88% 29.94 in 10.0 mi SE 4.6 mph - N/A   Overcast
10:35 PM 60.8 °F 57.2 °F 88% 29.94 in 10.0 mi SE 4.6 mph - N/A   Overcast
10:55 PM 60.8 °F 57.2 °F 88% 29.94 in 10.0 mi SE 3.5 mph - N/A   Overcast
11:15 PM 60.8 °F 57.2 °F 88% 29.94 in 10.0 mi SSE 3.5 mph - N/A   Overcast
11:35 PM 60.8 °F 57.2 °F 88% 29.94 in 10.0 mi SSE 4.6 mph - N/A   Overcast
11:55 PM 60.8 °F 57.2 °F 88% 29.95 in 10.0 mi SSE 4.6 mph - N/A   Overcast